User: anonymous   Login
Location: Port-Aux-Quilles Astronomical Observatory
(47.9769°N, 69.9642°W)
Time: 09:48:56
(UTC-05:00)
Language:

Envisat - Orbit

View from above orbital plane
View from above orbital plane
View from above satellite
View from above satellite

Ground track
Ground track

The orbit data is extracted from the following two-line orbital elements,

1 27386U 02009A   19321.14827956  .00000009  00000-0  16371-4 0  9996
2 27386  98.1428 334.3770 0001306  95.5706 304.5661 14.37963074927961
Epoch (UTC): 17 November 2019 03:33:31
Eccentricity: 0.0001306
inclination: 98.1428°
perigee height: 764 km
apogee height: 766 km
right ascension of ascending node: 334.3770°
argument of perigee: 95.5706°
revolutions per day: 14.37963074
mean anomaly at epoch: 304.5661°
orbit number at epoch: 92796

The dashed part of the orbit path shows where the satellite is in the earth's shadow,  

DLR